EZY613 EGPH-EDLW

Flight info

Callsign EZY613
Flight time N/A
Altitude 39000
Route TLA Y96 AGPED N110 DOLAS L603 LAMSO DCT EVELI DCT PAM L620 SONEB Z841 DOMEG DOMEG2A
Aircraft A20N/M-SDE2E3FGHIRWXY/LB1

Departure

Time 2026-04-21 14:43
Airport Edinburgh Airport (EGPH)

Arrival

Time N/A
Airport Dortmund Airport (EDLW)
Time Latitude Longitude Altitude Speed Heading
2026-04-21 14:28 55.94843 -3.35863 101 ft 0 kts 207°
2026-04-21 14:34 55.94848 -3.35858 101 ft 2 kts 206°
2026-04-21 14:35 55.94863 -3.35844 102 ft 2 kts 210°
2026-04-21 14:35 55.94877 -3.35828 100 ft 2 kts 214°
2026-04-21 14:35 55.94890 -3.35811 102 ft 2 kts 221°
2026-04-21 14:35 55.94902 -3.35789 103 ft 2 kts 244°
2026-04-21 14:36 55.94903 -3.35761 105 ft 2 kts 295°
2026-04-21 14:36 55.94902 -3.35755 105 ft 0 kts 300°
2026-04-21 14:37 55.94903 -3.35758 105 ft 2 kts 300°
2026-04-21 14:38 55.94934 -3.35838 105 ft 13 kts 316°
2026-04-21 14:38 55.95022 -3.35840 105 ft 14 kts
2026-04-21 14:38 55.95088 -3.35972 104 ft 18 kts 293°
2026-04-21 14:38 55.95136 -3.36226 108 ft 23 kts 273°
2026-04-21 14:39 55.95065 -3.36491 111 ft 25 kts 239°
2026-04-21 14:39 55.94970 -3.36775 111 ft 29 kts 239°
2026-04-21 14:39 55.94858 -3.37104 108 ft 32 kts 239°
2026-04-21 14:39 55.94739 -3.37458 114 ft 33 kts 239°
2026-04-21 14:40 55.94620 -3.37811 115 ft 34 kts 240°
2026-04-21 14:40 55.94493 -3.38170 111 ft 34 kts 239°
2026-04-21 14:40 55.94369 -3.38535 117 ft 35 kts 234°
2026-04-21 14:40 55.94280 -3.38820 122 ft 14 kts 272°
2026-04-21 14:41 55.94340 -3.38926 122 ft 14 kts 328°
2026-04-21 14:41 55.94413 -3.38966 120 ft 8 kts 32°
2026-04-21 14:41 55.94434 -3.38916 122 ft 0 kts 59°
2026-04-21 14:42 55.94533 -3.38622 117 ft 63 kts 59°
2026-04-21 14:43 55.94864 -3.37648 116 ft 117 kts 59°
2026-04-21 14:43 55.95342 -3.36249 469 ft 128 kts 58°
2026-04-21 14:43 55.95801 -3.35020 1269 ft 118 kts 55°
2026-04-21 14:43 55.96370 -3.33937 1821 ft 124 kts 48°
2026-04-21 14:44 55.97032 -3.32823 2251 ft 140 kts 47°
2026-04-21 14:44 55.97784 -3.31552 2741 ft 159 kts 49°
2026-04-21 14:44 55.98251 -3.29711 3267 ft 175 kts 88°
2026-04-21 14:44 55.97875 -3.27538 3846 ft 198 kts 121°
2026-04-21 14:45 55.96853 -3.25684 4443 ft 222 kts 137°
2026-04-21 14:45 55.95571 -3.23963 5098 ft 243 kts 140°
2026-04-21 14:45 55.94184 -3.22095 6045 ft 250 kts 139°
2026-04-21 14:45 55.92814 -3.20119 7116 ft 254 kts 137°
2026-04-21 14:46 55.91470 -3.18066 8140 ft 257 kts 136°
2026-04-21 14:46 55.90115 -3.15930 9160 ft 261 kts 136°
2026-04-21 14:46 55.88742 -3.13737 10217 ft 265 kts 136°
2026-04-21 14:46 55.87369 -3.11539 11042 ft 276 kts 136°
2026-04-21 14:47 55.85871 -3.09137 11465 ft 300 kts 136°
2026-04-21 14:47 55.84259 -3.06563 11906 ft 319 kts 136°
2026-04-21 14:47 55.82603 -3.03935 12730 ft 324 kts 136°
2026-04-21 14:47 55.80902 -3.01242 13611 ft 329 kts 136°
2026-04-21 14:48 55.79177 -2.98514 14471 ft 334 kts 136°
2026-04-21 14:48 55.77414 -2.95726 15263 ft 339 kts 136°
2026-04-21 14:48 55.75639 -2.92922 16052 ft 343 kts 136°
2026-04-21 14:48 55.73871 -2.90132 16822 ft 347 kts 136°
2026-04-21 14:49 55.72047 -2.87257 17558 ft 351 kts 136°
2026-04-21 14:49 55.70198 -2.84345 18324 ft 356 kts 136°
2026-04-21 14:49 55.68329 -2.81407 19053 ft 360 kts 136°
2026-04-21 14:49 55.66469 -2.78484 19717 ft 363 kts 136°
2026-04-21 14:50 55.65185 -2.76469 20185 ft 365 kts 136°
2026-04-21 14:50 55.62641 -2.72483 21055 ft 370 kts 136°
2026-04-21 14:50 55.60707 -2.69460 21709 ft 374 kts 136°
2026-04-21 14:50 55.58757 -2.66414 22378 ft 377 kts 136°
2026-04-21 14:51 55.56773 -2.63320 22999 ft 381 kts 136°
2026-04-21 14:51 55.54775 -2.60209 23655 ft 385 kts 136°
2026-04-21 14:51 55.52754 -2.57065 24258 ft 388 kts 136°
2026-04-21 14:51 55.50713 -2.53895 24789 ft 391 kts 137°
2026-04-21 14:52 55.48652 -2.50698 25318 ft 395 kts 137°
2026-04-21 14:52 55.46592 -2.47508 25801 ft 399 kts 137°
2026-04-21 14:52 55.44490 -2.44256 26314 ft 401 kts 137°
2026-04-21 14:52 55.42374 -2.40987 26800 ft 405 kts 137°
2026-04-21 14:53 55.40270 -2.37745 27274 ft 408 kts 137°
2026-04-21 14:53 55.38113 -2.34423 27660 ft 412 kts 137°
2026-04-21 14:53 55.35958 -2.31111 28083 ft 416 kts 138°
2026-04-21 14:53 55.33759 -2.27737 28524 ft 419 kts 138°
2026-04-21 14:54 55.31540 -2.24337 28907 ft 423 kts 138°
2026-04-21 14:54 55.29308 -2.20922 29310 ft 426 kts 138°
2026-04-21 14:54 55.27089 -2.17531 29691 ft 429 kts 139°
2026-04-21 14:54 55.24817 -2.14065 30042 ft 433 kts 139°
2026-04-21 14:55 55.22529 -2.10581 30428 ft 436 kts 139°
2026-04-21 14:55 55.20250 -2.07116 30744 ft 440 kts 139°
2026-04-21 14:55 55.17921 -2.03584 31030 ft 443 kts 139°
2026-04-21 14:55 55.15567 -2.00016 31299 ft 448 kts 139°
2026-04-21 14:56 55.13228 -1.96471 31581 ft 451 kts 139°
2026-04-21 14:56 55.10820 -1.92894 31910 ft 453 kts 142°
2026-04-21 14:56 55.08272 -1.89627 32235 ft 456 kts 144°
2026-04-21 14:56 55.05772 -1.86131 32548 ft 458 kts 140°
2026-04-21 14:57 55.03368 -1.82576 32867 ft 460 kts 137°
2026-04-21 14:57 55.01211 -1.78415 33178 ft 461 kts 126°
2026-04-21 14:57 54.99340 -1.73912 33496 ft 463 kts 125°
2026-04-21 14:57 54.97469 -1.69379 33843 ft 465 kts 125°
2026-04-21 14:58 54.95564 -1.64764 34155 ft 466 kts 125°
2026-04-21 14:58 54.93652 -1.60143 34475 ft 468 kts 125°
2026-04-21 14:58 54.91742 -1.55534 34766 ft 468 kts 125°
2026-04-21 14:58 54.89853 -1.50993 35100 ft 467 kts 125°
2026-04-21 14:59 54.87940 -1.46401 35439 ft 466 kts 125°
2026-04-21 14:59 54.86053 -1.41884 35752 ft 466 kts 125°
2026-04-21 14:59 54.84149 -1.37337 36074 ft 465 kts 125°
2026-04-21 14:59 54.82242 -1.32795 36392 ft 464 kts 125°
2026-04-21 15:00 54.80340 -1.28274 36688 ft 463 kts 125°
2026-04-21 15:00 54.78426 -1.23734 36957 ft 463 kts 125°
2026-04-21 15:00 54.76546 -1.19281 37219 ft 463 kts 125°
2026-04-21 15:00 54.74630 -1.14752 37484 ft 462 kts 125°
2026-04-21 15:01 54.72747 -1.10312 37736 ft 462 kts 125°
2026-04-21 15:01 54.70836 -1.05811 38001 ft 462 kts 125°
2026-04-21 15:01 54.68944 -1.01362 38255 ft 461 kts 126°
2026-04-21 15:01 54.67038 -0.96890 38506 ft 461 kts 126°
2026-04-21 15:02 54.65136 -0.92434 38724 ft 460 kts 126°
2026-04-21 15:02 54.63248 -0.88021 38937 ft 460 kts 126°
2026-04-21 15:02 54.61342 -0.83573 39159 ft 460 kts 126°
2026-04-21 15:02 54.59436 -0.79131 39324 ft 460 kts 126°
2026-04-21 15:03 54.57525 -0.74689 39461 ft 460 kts 126°
2026-04-21 15:03 54.53728 -0.65880 39488 ft 458 kts 126°
2026-04-21 15:04 54.49911 -0.57059 39489 ft 459 kts 126°
2026-04-21 15:04 54.46094 -0.48269 39482 ft 459 kts 126°
2026-04-21 15:05 54.42278 -0.39513 39484 ft 459 kts 126°
2026-04-21 15:05 54.36503 -0.26317 39478 ft 459 kts 126°
2026-04-21 15:06 54.32671 -0.17600 39477 ft 460 kts 126°
2026-04-21 15:06 54.28808 -0.08841 39474 ft 460 kts 126°
2026-04-21 15:07 54.24965 -0.00160 39470 ft 460 kts 126°
2026-04-21 15:07 54.21091 0.08560 39463 ft 460 kts 126°
2026-04-21 15:08 54.17197 0.17294 39466 ft 461 kts 126°
2026-04-21 15:08 54.13326 0.25950 39462 ft 460 kts 126°
2026-04-21 15:09 54.09441 0.34603 39462 ft 461 kts 126°
2026-04-21 15:09 54.05527 0.43293 39455 ft 461 kts 126°
2026-04-21 15:10 54.01635 0.51902 39455 ft 461 kts 126°
2026-04-21 15:10 53.97728 0.60515 39455 ft 461 kts 126°
2026-04-21 15:11 53.94454 0.67712 39449 ft 461 kts 126°
2026-04-21 15:11 53.89877 0.77734 39448 ft 461 kts 126°
2026-04-21 15:12 53.86601 0.84885 39446 ft 461 kts 127°
2026-04-21 15:12 53.82672 0.93434 39443 ft 461 kts 127°
2026-04-21 15:13 53.78715 1.02014 39438 ft 461 kts 127°
2026-04-21 15:13 53.74775 1.10529 39435 ft 461 kts 127°
2026-04-21 15:14 53.70819 1.19049 39438 ft 463 kts 127°
2026-04-21 15:14 53.66854 1.27559 39433 ft 462 kts 127°
2026-04-21 15:15 53.62861 1.36098 39431 ft 461 kts 127°
2026-04-21 15:15 53.58904 1.44535 39426 ft 462 kts 127°
2026-04-21 15:16 53.54907 1.53025 39424 ft 462 kts 127°
2026-04-21 15:16 53.50922 1.61461 39424 ft 462 kts 127°
2026-04-21 15:17 53.46897 1.69956 39422 ft 463 kts 127°
2026-04-21 15:17 53.42894 1.78373 39417 ft 463 kts 127°
2026-04-21 15:18 53.38894 1.86757 39417 ft 462 kts 127°
2026-04-21 15:18 53.34851 1.95203 39411 ft 463 kts 127°
2026-04-21 15:19 53.30819 2.03598 39411 ft 463 kts 127°
2026-04-21 15:19 53.26793 2.11952 39408 ft 463 kts 127°
2026-04-21 15:20 53.22762 2.20287 39405 ft 463 kts 127°
2026-04-21 15:20 53.18704 2.28652 39404 ft 463 kts 127°
2026-04-21 15:21 53.14631 2.37022 39394 ft 463 kts 127°
2026-04-21 15:21 53.10584 2.45307 39392 ft 463 kts 127°
2026-04-21 15:22 53.06489 2.53665 39393 ft 466 kts 127°
2026-04-21 15:22 53.02413 2.61955 39390 ft 464 kts 128°
2026-04-21 15:23 52.98326 2.70240 39387 ft 464 kts 127°
2026-04-21 15:23 52.94216 2.78544 39383 ft 465 kts 128°
2026-04-21 15:24 52.90095 2.86844 39380 ft 469 kts 128°
2026-04-21 15:24 52.85953 2.95159 39374 ft 465 kts 128°
2026-04-21 15:25 52.81849 3.03367 39374 ft 464 kts 128°
2026-04-21 15:25 52.77717 3.11607 39365 ft 464 kts 128°
2026-04-21 15:26 52.73577 3.19839 39363 ft 465 kts 128°
2026-04-21 15:26 52.69445 3.28041 39356 ft 466 kts 128°